• In Moldova, Republic
  • List of Countries
  • For 7 days
  • Water Temperature
  • Satellite Maps
  • Weather Map
  • Weather Widgets
  • user-avatar
    Login

    Hourly Weather Konstantyna

    Today, 30 March, Thursday

    Time Temperature Precipitation Wind Pressure Humidity
    00:00 +5°C° 0 mm 1 mps 715 mmHg 91%
    01:00 +5°C° 0 mm 1 mps 715 mmHg 90%
    02:00 +5°C° 0 mm 1 mps 715 mmHg 89%
    03:00 +5°C° 0 mm 1 mps 715 mmHg 88%
    04:00 +5°C° 0 mm 1 mps 715 mmHg 86%
    05:00 +5°C° 0 mm 1 mps 715 mmHg 84%
    06:00 +7°C° 0 mm 1 mps 716 mmHg 78%
    07:00 +10°C° 0 mm 1 mps 716 mmHg 66%
    08:00 +13°C° 0 mm 1 mps 717 mmHg 55%
    09:00 +18°C° 0 mm 1 mps 717 mmHg 43%
    10:00 +19°C° 0 mm 1 mps 717 mmHg 38%
    11:00 +20°C° 0 mm 1 mps 717 mmHg 34%
    12:00 +20°C° 0 mm 2 mps 717 mmHg 30%
    13:00 +20°C° 0 mm 2 mps 717 mmHg 31%
    14:00 +20°C° 0 mm 2 mps 716 mmHg 32%
    15:00 +20°C° 0 mm 2 mps 716 mmHg 33%
    16:00 +17°C° 0 mm 2 mps 716 mmHg 47%
    17:00 +14°C° 0 mm 2 mps 715 mmHg 60%
    18:00 +10°C° 0 mm 2 mps 715 mmHg 74%
    19:00 +10°C° 0 mm 1 mps 715 mmHg 79%
    20:00 +9°C° 0 mm 1 mps 715 mmHg 84%
    21:00 +8°C° 0 mm 1 mps 715 mmHg 89%
    22:00 +8°C° 0 mm 1 mps 715 mmHg 87%
    23:00 +8°C° 0 mm 1 mps 715 mmHg 84%

    Tomorrow, 31 March, Friday

    Time Temperature Precipitation Wind Pressure Humidity
    00:00 +7°C° 0 mm 2 mps 715 mmHg 82%
    01:00 +7°C° 0 mm 2 mps 715 mmHg 78%
    02:00 +7°C° 0 mm 2 mps 714 mmHg 75%
    03:00 +7°C° 0 mm 2 mps 714 mmHg 71%
    04:00 +7°C° 0 mm 2 mps 714 mmHg 66%
    05:00 +7°C° 0 mm 2 mps 714 mmHg 61%
    06:00 +8°C° 0 mm 2 mps 714 mmHg 57%
    07:00 +12°C° 0 mm 2 mps 714 mmHg 47%
    08:00 +16°C° 0 mm 3 mps 715 mmHg 37%
    09:00 +20°C° 0 mm 3 mps 715 mmHg 28%
    10:00 +22°C° 0 mm 3 mps 715 mmHg 24%
    11:00 +25°C° 0 mm 3 mps 715 mmHg 21%
    12:00 +26°C° 0 mm 3 mps 715 mmHg 18%
    13:00 +26°C° 0 mm 3 mps 714 mmHg 19%
    14:00 +26°C° 0 mm 3 mps 714 mmHg 21%
    15:00 +25°C° 0 mm 3 mps 713 mmHg 22%
    16:00 +21°C° 0 mm 3 mps 713 mmHg 34%
    17:00 +18°C° 0 mm 2 mps 712 mmHg 46%
    18:00 +14°C° 0 mm 1 mps 711 mmHg 58%
    19:00 +14°C° 0 mm 1 mps 712 mmHg 54%
    20:00 +13°C° 0 mm 1 mps 712 mmHg 50%
    21:00 +13°C° 0 mm 2 mps 712 mmHg 46%
    22:00 +12°C° 0 mm 2 mps 711 mmHg 45%
    23:00 +12°C° 0 mm 2 mps 711 mmHg 44%

    Day after tomorrow, 1 April, Saturday

    Time Temperature Precipitation Wind Pressure Humidity
    00:00 +10°C° 0 mm 2 mps 710 mmHg 42%
    01:00 +10°C° 0 mm 2 mps 710 mmHg 43%
    02:00 +10°C° 0 mm 2 mps 709 mmHg 43%
    03:00 +9°C° 0 mm 2 mps 709 mmHg 43%
    04:00 +9°C° 0 mm 2 mps 709 mmHg 45%
    05:00 +9°C° 0 mm 2 mps 709 mmHg 46%
    06:00 +9°C° 0 mm 2 mps 709 mmHg 47%
    07:00 +14°C° 0 mm 2 mps 709 mmHg 40%
    08:00 +17°C° 0 mm 3 mps 710 mmHg 34%
    09:00 +21°C° 0 mm 3 mps 710 mmHg 27%
    10:00 +21°C° 0 mm 4 mps 710 mmHg 29%
    11:00 +21°C° 0 mm 5 mps 709 mmHg 30%
    12:00 +22°C° 0 mm 6 mps 709 mmHg 31%
    13:00 +19°C° 1 mm 6 mps 709 mmHg 43%
    14:00 +16°C° 1 mm 6 mps 708 mmHg 56%
    15:00 +14°C° 1 mm 5 mps 708 mmHg 68%
    16:00 +12°C° 0.4 mm 5 mps 708 mmHg 70%
    17:00 +11°C° 0.4 mm 4 mps 708 mmHg 71%
    18:00 +10°C° 0.4 mm 3 mps 708 mmHg 72%
    19:00 +8°C° 0 mm 3 mps 709 mmHg 77%
    20:00 +7°C° 0 mm 3 mps 709 mmHg 82%
    21:00 +5°C° 0 mm 3 mps 709 mmHg 86%
    22:00 +5°C° 0.1 mm 3 mps 709 mmHg 88%
    23:00 +5°C° 0.1 mm 3 mps 709 mmHg 89%

    2 April, Sunday

    Time Temperature Precipitation Wind Pressure Humidity
    00:00 +4°C° 0.1 mm 3 mps 709 mmHg 90%
    01:00 +4°C° 0.1 mm 3 mps 709 mmHg 91%
    02:00 +4°C° 0.1 mm 3 mps 708 mmHg 92%
    03:00 +5°C° 0.1 mm 2 mps 708 mmHg 93%
    04:00 +5°C° 0 mm 2 mps 708 mmHg 91%
    05:00 +5°C° 0 mm 2 mps 708 mmHg 90%
    06:00 +5°C° 0 mm 2 mps 708 mmHg 88%
    07:00 +8°C° 0 mm 3 mps 709 mmHg 74%
    08:00 +11°C° 0 mm 4 mps 709 mmHg 60%
    09:00 +14°C° 0 mm 5 mps 710 mmHg 46%
    10:00 +14°C° 0.1 mm 6 mps 709 mmHg 43%
    11:00 +15°C° 0.1 mm 6 mps 709 mmHg 40%
    12:00 +16°C° 0.1 mm 7 mps 709 mmHg 37%
    13:00 +16°C° 0.1 mm 7 mps 709 mmHg 39%
    14:00 +15°C° 0.1 mm 6 mps 709 mmHg 41%
    15:00 +15°C° 0.1 mm 6 mps 708 mmHg 44%
    16:00 +13°C° 0 mm 5 mps 708 mmHg 53%
    17:00 +11°C° 0 mm 4 mps 708 mmHg 61%
    18:00 +8°C° 0 mm 4 mps 708 mmHg 70%
    19:00 +8°C° 0 mm 3 mps 708 mmHg 77%
    20:00 +7°C° 0 mm 3 mps 709 mmHg 83%
    21:00 +5°C° 0 mm 3 mps 709 mmHg 89%
    22:00 +5°C° 0.1 mm 3 mps 709 mmHg 91%
    23:00 +5°C° 0.1 mm 3 mps 709 mmHg 92%

    3 April, Monday

    Time Temperature Precipitation Wind Pressure Humidity
    00:00 +5°C° 0.1 mm 3 mps 709 mmHg 93%
    01:00 +5°C° 0.2 mm 3 mps 708 mmHg 94%
    02:00 +6°C° 0.2 mm 2 mps 708 mmHg 94%
    03:00 +6°C° 0.2 mm 2 mps 708 mmHg 94%
    04:00 +6°C° 0.1 mm 2 mps 708 mmHg 95%
    05:00 +7°C° 0.1 mm 2 mps 709 mmHg 95%
    06:00 +7°C° 0.1 mm 2 mps 709 mmHg 96%
    07:00 +9°C° 0.1 mm 3 mps 709 mmHg 87%
    08:00 +11°C° 0.1 mm 3 mps 710 mmHg 79%
    09:00 +13°C° 0.1 mm 4 mps 710 mmHg 70%
    10:00 +14°C° 0.2 mm 4 mps 710 mmHg 67%
    11:00 +14°C° 0.2 mm 4 mps 710 mmHg 64%
    12:00 +15°C° 0.2 mm 5 mps 710 mmHg 60%
    13:00 +15°C° 0.2 mm 5 mps 710 mmHg 61%
    14:00 +15°C° 0.2 mm 5 mps 710 mmHg 62%
    15:00 +15°C° 0.2 mm 5 mps 710 mmHg 63%
    16:00 +13°C° 0.1 mm 4 mps 710 mmHg 70%
    17:00 +11°C° 0.1 mm 3 mps 710 mmHg 77%
    18:00 +9°C° 0.1 mm 3 mps 710 mmHg 85%
    19:00 +9°C° 0.1 mm 2 mps 711 mmHg 88%
    20:00 +9°C° 0.1 mm 2 mps 711 mmHg 91%
    21:00 +8°C° 0.1 mm 2 mps 711 mmHg 94%
    22:00 +8°C° 0 mm 2 mps 711 mmHg 94%
    23:00 +8°C° 0 mm 2 mps 711 mmHg 95%

    4 April, Tuesday

    Time Temperature Precipitation Wind Pressure Humidity
    00:00 +7°C° 0 mm 2 mps 711 mmHg 96%
    01:00 +7°C° 0 mm 2 mps 710 mmHg 96%
    02:00 +7°C° 0 mm 2 mps 710 mmHg 96%
    03:00 +6°C° 0 mm 2 mps 710 mmHg 96%
    04:00 +7°C° 0 mm 2 mps 710 mmHg 96%
    05:00 +7°C° 0 mm 2 mps 710 mmHg 95%
    06:00 +8°C° 0 mm 2 mps 711 mmHg 94%
    07:00 +10°C° 0 mm 2 mps 711 mmHg 85%
    08:00 +12°C° 0 mm 2 mps 712 mmHg 76%
    09:00 +13°C° 0 mm 3 mps 712 mmHg 67%
    10:00 +14°C° 0.2 mm 3 mps 712 mmHg 64%
    11:00 +16°C° 0.2 mm 3 mps 712 mmHg 60%
    12:00 +17°C° 0.2 mm 3 mps 712 mmHg 56%
    13:00 +17°C° 0.3 mm 3 mps 712 mmHg 56%
    14:00 +17°C° 0.3 mm 4 mps 712 mmHg 56%
    15:00 +17°C° 0.3 mm 4 mps 711 mmHg 55%
    16:00 +14°C° 0 mm 3 mps 711 mmHg 65%
    17:00 +12°C° 0 mm 3 mps 711 mmHg 75%
    18:00 +10°C° 0 mm 2 mps 711 mmHg 86%
    19:00 +8°C° 0 mm 2 mps 711 mmHg 89%
    20:00 +7°C° 0 mm 1 mps 712 mmHg 93%
    21:00 +6°C° 0 mm 1 mps 712 mmHg 97%
    22:00 +6°C° 0 mm 1 mps 712 mmHg 96%
    23:00 +6°C° 0 mm 1 mps 712 mmHg 96%
    Show more